contact:dominique.lefevre@mio.osupytheas.fr, maurice.libes@osupytheas.fr, didier.mallarino@osupytheas.fr
Project:EMSO http://www.emso-fr.org/EMSO-France
Depth: 2436.0 m
Title:EMSO Ligure Ouest : Data MII capteur AQUADOPP
Date,Latitude,Longitude,X_East,Y_North,Z_Up,Amplitude_X,Amplitude_Y,Amplitude_Z,Batterie,SoundSpeed,Heading,Pitch,Roll,Pressure,TIS,Speed,Direction
, degrees North, degrees East, m.s-1, m.s-1,m.s-1, 1, 1, 1, Volt, m.s-1, degree, degree, degree, dbar, degree_C, m.s-1, degree
2023-12-06T00:04:03,42.805,6.029,-0.013,-0.022,-0.008,113.0,111.0,108.0,13.4,1505.2,355.0,-0.8,1.8,2471.532,13.29,0.025,210.6
2023-12-06T00:07:03,42.805,6.029,-0.002,-0.027,0.008,113.0,112.0,107.0,13.4,1505.2,0.8,-0.7,1.8,2471.528,13.29,0.027,184.2
2023-12-06T00:10:03,42.805,6.029,0.004,-0.043,-0.011,113.0,111.0,108.0,13.4,1505.2,352.7,-0.8,1.8,2471.509,13.29,0.043,174.7
2023-12-06T00:13:03,42.805,6.029,-0.002,-0.026,0.035,113.0,112.0,108.0,13.4,1505.2,2.5,-0.8,1.8,2471.516,13.29,0.026,184.4
2023-12-06T00:16:03,42.805,6.029,0.005,-0.035,-0.019,113.0,111.0,108.0,13.3,1505.2,355.8,-0.8,1.8,2471.52,13.29,0.035,171.9
2023-12-06T00:19:03,42.805,6.029,0.003,-0.031,-0.023,113.0,112.0,108.0,13.4,1505.2,341.8,-0.8,1.8,2471.496,13.29,0.031,174.5
2023-12-06T00:22:03,42.805,6.029,-0.001,-0.025,-0.013,114.0,111.0,109.0,13.3,1505.2,343.4,-0.8,1.8,2471.476,13.29,0.025,182.3
2023-12-06T00:25:03,42.805,6.029,0.007,-0.014,0.027,113.0,112.0,108.0,13.4,1505.2,342.5,-0.7,1.8,2471.483,13.29,0.015,153.4
2023-12-06T00:28:03,42.805,6.029,-0.001,-0.01,0.022,113.0,111.0,108.0,13.3,1505.2,351.1,-0.8,1.8,2471.503,13.29,0.01,185.7
2023-12-06T00:31:03,42.805,6.029,0.008,-0.045,-0.002,112.0,111.0,108.0,13.4,1505.2,352.5,-0.8,1.8,2471.528,13.29,0.045,169.9
2023-12-06T00:34:03,42.805,6.029,-0.023,-0.034,-0.006,113.0,112.0,109.0,13.4,1505.2,1.6,-0.8,1.8,2471.488,13.29,0.041,214.1
2023-12-06T00:37:03,42.805,6.029,-0.016,-0.034,-0.032,113.0,111.0,109.0,13.4,1505.2,351.7,-0.8,1.8,2471.512,13.29,0.037,205.2
2023-12-06T00:40:03,42.805,6.029,0.006,-0.042,-0.009,114.0,111.0,108.0,13.4,1505.2,343.5,-0.7,1.8,2471.535,13.29,0.042,171.9
2023-12-06T00:43:03,42.805,6.029,0.017,-0.033,0.0,111.0,111.0,107.0,13.3,1505.2,354.3,-0.7,1.8,2471.489,13.29,0.037,152.7
2023-12-06T00:46:03,42.805,6.029,0.022,-0.013,0.0,112.0,111.0,109.0,13.3,1505.2,340.5,-0.7,1.8,2471.471,13.29,0.025,120.6
2023-12-06T00:49:03,42.805,6.029,0.016,-0.045,0.024,112.0,112.0,107.0,13.4,1505.2,348.0,-0.8,1.8,2471.509,13.29,0.047,160.4
2023-12-06T00:52:03,42.805,6.029,0.022,-0.033,-0.023,111.0,112.0,108.0,13.4,1505.2,338.9,-0.8,1.8,2471.469,13.29,0.039,146.3
2023-12-06T00:55:03,42.805,6.029,-0.017,-0.036,-0.017,113.0,112.0,108.0,13.3,1505.2,3.3,-0.8,1.8,2471.499,13.29,0.039,205.3
2023-12-06T00:58:03,42.805,6.029,0.005,-0.033,0.005,111.0,111.0,108.0,13.3,1505.2,340.1,-0.8,1.8,2471.529,13.29,0.033,171.4
2023-12-06T01:04:03,42.805,6.029,0.006,-0.028,-0.021,113.0,111.0,109.0,13.4,1505.2,338.4,-0.8,1.8,2471.579,13.29,0.028,167.9
2023-12-06T01:07:03,42.805,6.029,-0.005,-0.032,0.027,113.0,110.0,108.0,13.4,1505.2,345.5,-0.8,1.8,2471.501,13.29,0.032,188.9
2023-12-06T01:10:03,42.805,6.029,0.001,-0.023,0.017,112.0,111.0,108.0,13.3,1505.2,337.9,-0.8,1.8,2471.514,13.29,0.023,177.5
2023-12-06T01:13:03,42.805,6.029,-0.014,-0.031,-0.031,112.0,112.0,108.0,13.3,1505.2,346.6,-0.8,1.8,2471.558,13.29,0.034,204.3
2023-12-06T01:16:03,42.805,6.029,-0.02,-0.028,-0.012,113.0,111.0,109.0,13.3,1505.2,338.6,-0.7,1.8,2471.527,13.29,0.034,215.5
2023-12-06T01:19:03,42.805,6.029,-0.008,-0.039,-0.003,113.0,110.0,108.0,13.3,1505.2,347.5,-0.8,1.8,2471.556,13.29,0.039,191.6
2023-12-06T01:22:02,42.805,6.029,0.014,-0.051,-0.003,112.0,111.0,107.0,13.4,1505.2,347.2,-0.8,1.8,2471.527,13.29,0.052,164.7
2023-12-06T01:25:03,42.805,6.029,0.004,-0.046,0.007,112.0,110.0,108.0,13.3,1505.2,354.6,-0.7,1.8,2471.48,13.29,0.046,175.0
2023-12-06T01:28:03,42.805,6.029,-0.003,-0.03,-0.009,112.0,111.0,109.0,13.4,1505.2,341.8,-0.7,1.8,2471.53,13.29,0.03,185.7
2023-12-06T01:31:03,42.805,6.029,0.0,-0.046,-0.029,113.0,111.0,107.0,13.3,1505.2,342.6,-0.8,1.9,2471.494,13.29,0.046,180.0
2023-12-06T01:34:03,42.805,6.029,-0.006,-0.019,0.004,112.0,112.0,107.0,13.3,1505.2,358.2,-0.7,1.8,2471.497,13.29,0.019,197.5
2023-12-06T01:37:03,42.805,6.029,0.001,-0.029,0.004,113.0,111.0,108.0,13.4,1505.2,339.1,-0.8,1.8,2471.512,13.29,0.029,178.0
2023-12-06T01:40:03,42.805,6.029,0.004,-0.041,-0.026,113.0,112.0,108.0,13.4,1505.2,351.7,-0.8,1.8,2471.488,13.29,0.041,174.4
2023-12-06T01:43:03,42.805,6.029,0.002,-0.032,-0.019,112.0,112.0,108.0,13.3,1505.2,355.1,-0.7,1.9,2471.51,13.29,0.032,176.4
2023-12-06T01:46:03,42.805,6.029,0.012,-0.032,0.002,113.0,112.0,109.0,13.4,1505.2,339.8,-0.7,1.8,2471.545,13.29,0.034,159.4
2023-12-06T01:49:03,42.805,6.029,-0.006,-0.044,-0.039,112.0,113.0,109.0,13.4,1505.2,345.1,-0.8,1.8,2471.503,13.29,0.044,187.8
2023-12-06T01:52:03,42.805,6.029,-0.009,-0.02,-0.005,112.0,111.0,109.0,13.3,1505.2,354.6,-0.8,1.8,2471.521,13.29,0.021,204.2
2023-12-06T01:55:03,42.805,6.029,0.001,-0.043,0.016,113.0,113.0,108.0,13.4,1505.2,350.8,-0.7,1.8,2471.5,13.29,0.043,178.7
2023-12-06T01:58:03,42.805,6.029,0.013,-0.041,-0.018,113.0,113.0,109.0,13.3,1505.2,352.3,-0.8,1.8,2471.525,13.29,0.043,162.4
2023-12-06T03:04:03,42.805,6.029,-0.008,-0.005,-0.015,113.0,112.0,109.0,13.4,1505.2,344.4,-0.8,1.8,2472.044,13.28,0.009,238.0
2023-12-06T03:07:03,42.805,6.029,-0.021,-0.008,0.001,112.0,112.0,108.0,13.4,1505.2,357.5,-0.8,1.8,2471.952,13.28,0.022,249.1
2023-12-06T03:10:03,42.805,6.029,-0.009,-0.018,-0.018,112.0,112.0,108.0,13.4,1505.2,347.9,-0.8,1.8,2471.855,13.28,0.02,206.6
2023-12-06T03:13:03,42.805,6.029,-0.01,-0.002,-0.013,112.0,110.0,108.0,13.4,1505.2,356.3,-0.8,1.8,2471.74,13.29,0.01,258.7
2023-12-06T03:16:03,42.805,6.029,-0.012,-0.015,-0.006,113.0,112.0,107.0,13.4,1505.2,339.8,-0.8,1.8,2471.699,13.29,0.019,218.7
2023-12-06T03:19:03,42.805,6.029,-0.03,-0.005,-0.031,113.0,113.0,107.0,13.4,1505.2,351.3,-0.8,1.8,2471.692,13.29,0.03,260.5
2023-12-06T03:22:03,42.805,6.029,-0.027,-0.02,-0.025,112.0,112.0,109.0,13.3,1505.2,357.5,-0.8,1.8,2471.649,13.29,0.033,233.5
2023-12-06T03:25:03,42.805,6.029,0.01,0.008,-0.007,112.0,110.0,108.0,13.4,1505.2,344.6,-0.8,1.8,2471.578,13.29,0.012,51.3
2023-12-06T03:28:03,42.805,6.029,-0.023,-0.026,-0.003,112.0,112.0,106.0,13.4,1505.2,0.0,-0.8,1.8,2471.579,13.29,0.034,221.5
2023-12-06T03:31:03,42.805,6.029,-0.014,0.01,-0.016,112.0,110.0,108.0,13.4,1505.2,336.9,-0.8,1.8,2471.56,13.29,0.017,305.5
2023-12-06T03:34:03,42.805,6.029,-0.029,-0.028,-0.01,111.0,111.0,107.0,13.4,1505.2,353.5,-0.8,1.8,2471.522,13.29,0.04,226.0
2023-12-06T03:37:03,42.805,6.029,-0.01,0.007,-0.004,112.0,109.0,107.0,13.4,1505.2,0.0,-0.8,1.8,2471.49,13.29,0.012,305.0
2023-12-06T03:40:03,42.805,6.029,-0.015,-0.014,0.0,111.0,111.0,108.0,13.4,1505.2,343.2,-0.8,1.8,2471.455,13.29,0.02,227.0
2023-12-06T03:43:03,42.805,6.029,0.001,-0.004,-0.027,111.0,112.0,107.0,13.3,1505.2,350.2,-0.7,1.8,2471.518,13.29,0.004,166.0
2023-12-06T03:46:03,42.805,6.029,-0.021,-0.009,-0.021,113.0,111.0,109.0,13.3,1505.2,338.7,-0.8,1.8,2471.499,13.29,0.022,246.8
2023-12-06T03:49:03,42.805,6.029,-0.004,-0.008,-0.013,112.0,111.0,108.0,13.3,1505.2,344.1,-0.8,1.8,2471.5,13.29,0.008,206.6
2023-12-06T03:52:03,42.805,6.029,-0.014,-0.016,-0.014,113.0,111.0,107.0,13.4,1505.2,344.4,-0.7,1.8,2471.489,13.29,0.021,221.2
2023-12-06T03:55:03,42.805,6.029,-0.019,-0.027,-0.011,112.0,111.0,107.0,13.3,1505.2,342.8,-0.7,1.8,2471.497,13.29,0.033,215.1
2023-12-06T03:58:03,42.805,6.029,-0.008,-0.015,-0.056,111.0,110.0,107.0,13.4,1505.2,336.2,-0.8,1.8,2471.489,13.29,0.017,208.1
2023-12-06T05:04:02,42.805,6.029,-0.026,0.006,-0.016,111.0,111.0,107.0,13.4,1505.2,347.7,-0.7,1.8,2472.03,13.28,0.026,283.0
2023-12-06T05:07:03,42.805,6.029,-0.02,0.015,-0.012,111.0,110.0,108.0,13.3,1505.2,357.3,-0.8,1.8,2471.925,13.28,0.025,306.9
2023-12-06T05:10:03,42.805,6.029,-0.024,0.014,0.008,112.0,110.0,108.0,13.3,1505.2,337.3,-0.8,1.8,2471.824,13.29,0.027,300.3
2023-12-06T05:13:03,42.805,6.029,-0.014,0.003,-0.04,112.0,113.0,108.0,13.4,1505.2,345.3,-0.8,1.8,2471.738,13.29,0.014,282.1
2023-12-06T05:16:03,42.805,6.029,-0.014,-0.004,-0.013,111.0,111.0,108.0,13.3,1505.2,338.6,-0.8,1.8,2471.681,13.29,0.014,254.1
2023-12-06T05:19:03,42.805,6.029,-0.028,0.003,-0.027,112.0,111.0,108.0,13.4,1505.2,357.4,-0.8,1.8,2471.627,13.29,0.028,276.1
2023-12-06T05:22:03,42.805,6.029,-0.037,0.008,-0.013,113.0,111.0,108.0,13.4,1505.2,344.6,-0.8,1.8,2471.593,13.29,0.037,282.2
2023-12-06T05:25:03,42.805,6.029,-0.026,0.005,-0.018,111.0,111.0,108.0,13.3,1505.2,344.9,-0.7,1.8,2471.591,13.29,0.026,280.9
2023-12-06T05:28:03,42.805,6.029,-0.019,0.027,-0.013,110.0,111.0,109.0,13.4,1505.2,356.8,-0.8,1.8,2471.538,13.29,0.033,324.9
2023-12-06T05:31:03,42.805,6.029,-0.013,0.011,-0.042,112.0,112.0,107.0,13.3,1505.2,355.1,-0.8,1.8,2471.526,13.29,0.017,310.2
2023-12-06T05:34:03,42.805,6.029,-0.006,0.017,0.009,112.0,110.0,108.0,13.4,1505.2,349.5,-0.8,1.8,2471.521,13.29,0.018,340.6
2023-12-06T05:37:03,42.805,6.029,-0.015,0.004,0.027,112.0,111.0,108.0,13.4,1505.2,337.1,-0.8,1.8,2471.51,13.29,0.015,284.9
2023-12-06T05:40:03,42.805,6.029,-0.01,0.029,-0.007,113.0,112.0,108.0,13.4,1505.2,351.6,-0.8,1.8,2471.49,13.29,0.03,341.0
2023-12-06T05:43:03,42.805,6.029,-0.01,0.0,0.006,111.0,110.0,107.0,13.3,1505.2,335.5,-0.8,1.8,2471.488,13.29,0.01,270.0
2023-12-06T05:46:03,42.805,6.029,-0.016,-0.001,-0.013,112.0,111.0,108.0,13.3,1505.2,349.6,-0.7,1.8,2471.481,13.29,0.016,266.4
2023-12-06T05:49:03,42.805,6.029,-0.015,0.02,-0.004,112.0,110.0,107.0,13.3,1505.2,345.2,-0.8,1.8,2471.505,13.29,0.025,323.1
2023-12-06T05:52:03,42.805,6.029,-0.031,0.011,-0.036,112.0,111.0,108.0,13.3,1505.2,345.9,-0.8,1.8,2471.469,13.29,0.032,289.5
2023-12-06T05:55:03,42.805,6.029,-0.041,0.025,-0.028,112.0,111.0,109.0,13.3,1505.2,347.1,-0.8,1.8,2471.48,13.29,0.048,301.4
2023-12-06T05:58:03,42.805,6.029,-0.036,0.012,-0.039,111.0,111.0,108.0,13.4,1505.2,339.5,-0.8,1.8,2471.481,13.29,0.037,288.4
2023-12-06T06:04:03,42.805,6.029,-0.033,0.004,-0.032,112.0,112.0,107.0,13.3,1505.2,338.4,-0.8,1.8,2471.527,13.29,0.033,276.9
2023-12-06T06:07:03,42.805,6.029,-0.013,0.019,-0.024,112.0,111.0,107.0,13.4,1505.2,344.1,-0.8,1.8,2471.542,13.29,0.023,325.6
2023-12-06T06:10:03,42.805,6.029,0.006,0.009,-0.008,112.0,112.0,106.0,13.4,1505.2,341.8,-0.8,1.8,2471.476,13.29,0.01,33.7
2023-12-06T06:13:03,42.805,6.029,-0.015,0.042,-0.01,112.0,111.0,106.0,13.3,1505.2,354.9,-0.8,1.8,2471.511,13.29,0.044,340.4
2023-12-06T06:16:03,42.805,6.029,-0.016,0.014,-0.007,112.0,110.0,108.0,13.4,1505.2,345.0,-0.8,1.8,2471.452,13.29,0.021,311.2
2023-12-06T06:19:03,42.805,6.029,-0.003,0.028,-0.013,110.0,111.0,107.0,13.4,1505.2,348.6,-0.8,1.8,2471.535,13.29,0.028,353.9
2023-12-06T06:22:03,42.805,6.029,-0.02,0.037,0.0,111.0,111.0,109.0,13.4,1505.2,337.5,-0.8,1.8,2471.502,13.29,0.042,331.6
2023-12-06T06:25:03,42.805,6.029,-0.012,0.022,-0.014,112.0,111.0,108.0,13.3,1505.2,342.0,-0.8,1.7,2471.482,13.29,0.025,331.4
2023-12-06T06:28:03,42.805,6.029,-0.023,0.01,-0.012,111.0,110.0,107.0,13.4,1505.2,350.8,-0.7,1.8,2471.512,13.29,0.025,293.5
2023-12-06T06:31:03,42.805,6.029,-0.013,0.032,-0.005,110.0,111.0,107.0,13.3,1505.2,0.8,-0.7,1.8,2471.455,13.29,0.034,337.9
2023-12-06T06:34:03,42.805,6.029,-0.041,0.014,-0.024,112.0,112.0,107.0,13.4,1505.2,343.7,-0.8,1.8,2471.494,13.29,0.043,288.9
2023-12-06T06:37:03,42.805,6.029,-0.022,0.027,-0.026,112.0,111.0,109.0,13.4,1505.2,346.7,-0.7,1.8,2471.501,13.29,0.034,320.8
2023-12-06T06:40:03,42.805,6.029,-0.02,0.019,-0.002,114.0,112.0,108.0,13.4,1505.2,345.7,-0.8,1.8,2471.455,13.29,0.027,313.5
2023-12-06T06:43:03,42.805,6.029,-0.012,0.0,-0.019,111.0,112.0,108.0,13.3,1505.2,343.8,-0.8,1.8,2471.493,13.29,0.012,270.0
2023-12-06T06:46:03,42.805,6.029,0.017,0.016,-0.019,112.0,111.0,108.0,13.3,1505.2,345.9,-0.8,1.8,2471.495,13.29,0.023,46.7
2023-12-06T06:49:03,42.805,6.029,-0.002,0.02,0.01,111.0,110.0,108.0,13.4,1505.2,344.6,-0.7,1.8,2471.47,13.29,0.02,354.3
2023-12-06T06:52:03,42.805,6.029,-0.009,0.014,-0.024,110.0,111.0,108.0,13.4,1505.2,341.0,-0.8,1.8,2471.457,13.29,0.016,327.3
2023-12-06T06:55:03,42.805,6.029,-0.018,0.02,-0.013,111.0,112.0,107.0,13.4,1505.2,356.3,-0.8,1.8,2471.474,13.29,0.026,318.0
2023-12-06T06:58:03,42.805,6.029,-0.017,0.016,-0.002,112.0,111.0,107.0,13.3,1505.2,352.6,-0.8,1.8,2471.435,13.29,0.023,313.3
2023-12-06T07:04:03,42.805,6.029,-0.008,0.027,0.006,113.0,111.0,107.0,13.4,1505.2,347.2,-0.8,1.8,2471.504,13.29,0.028,343.5
2023-12-06T07:07:03,42.805,6.029,-0.027,0.003,0.01,111.0,111.0,107.0,13.3,1505.2,0.8,-0.8,1.8,2471.534,13.29,0.027,276.3
2023-12-06T07:10:03,42.805,6.029,-0.008,0.05,-0.005,111.0,112.0,108.0,13.4,1505.2,348.8,-0.7,1.8,2471.533,13.29,0.05,350.9
2023-12-06T07:13:03,42.805,6.029,-0.023,0.022,0.001,112.0,112.0,108.0,13.4,1505.2,350.7,-0.8,1.8,2471.507,13.29,0.031,313.7
2023-12-06T07:16:03,42.805,6.029,-0.003,0.035,-0.016,112.0,111.0,108.0,13.4,1505.2,351.1,-0.7,1.8,2471.491,13.29,0.035,355.1
2023-12-06T07:19:03,42.805,6.029,-0.013,0.036,-0.008,112.0,112.0,109.0,13.3,1505.2,2.6,-0.8,1.8,2471.467,13.29,0.038,340.1
2023-12-06T07:22:03,42.805,6.029,-0.025,0.013,-0.022,111.0,110.0,109.0,13.4,1505.2,343.9,-0.8,1.8,2471.476,13.29,0.028,297.5
2023-12-06T07:25:03,42.805,6.029,-0.004,0.022,-0.021,112.0,111.0,108.0,13.4,1505.2,342.6,-0.8,1.8,2471.497,13.29,0.022,349.7
2023-12-06T07:28:03,42.805,6.029,-0.009,0.014,-0.016,112.0,111.0,108.0,13.3,1505.2,344.4,-0.8,1.8,2471.488,13.29,0.016,327.3
2023-12-06T07:31:03,42.805,6.029,0.002,0.012,-0.003,112.0,112.0,108.0,13.4,1505.2,349.8,-0.8,1.8,2471.492,13.29,0.012,9.5
2023-12-06T07:34:03,42.805,6.029,0.007,0.024,-0.025,110.0,111.0,108.0,13.4,1505.2,0.8,-0.7,1.8,2471.493,13.29,0.025,16.3
2023-12-06T07:37:03,42.805,6.029,-0.009,0.017,-0.023,112.0,111.0,107.0,13.4,1505.2,355.6,-0.8,1.8,2471.496,13.29,0.019,332.1
2023-12-06T07:40:03,42.805,6.029,-0.009,0.044,0.006,113.0,112.0,108.0,13.4,1505.2,359.1,-0.7,1.8,2471.477,13.29,0.044,348.4
2023-12-06T07:43:03,42.805,6.029,0.004,0.029,0.002,112.0,110.0,109.0,13.4,1505.2,351.3,-0.8,1.8,2471.496,13.29,0.029,7.8
2023-12-06T07:46:03,42.805,6.029,-0.006,0.022,-0.005,111.0,112.0,108.0,13.3,1505.2,342.5,-0.8,1.8,2471.506,13.29,0.022,344.7
2023-12-06T07:49:03,42.805,6.029,-0.013,0.014,-0.018,112.0,111.0,107.0,13.4,1505.2,342.8,-0.8,1.8,2471.505,13.29,0.019,317.1
2023-12-06T07:52:03,42.805,6.029,-0.019,0.008,-0.001,114.0,110.0,108.0,13.4,1505.2,339.6,-0.8,1.8,2471.443,13.29,0.02,292.8
2023-12-06T07:55:03,42.805,6.029,-0.015,0.008,0.002,112.0,111.0,108.0,13.4,1505.2,346.1,-0.8,1.8,2471.471,13.29,0.017,298.1
2023-12-06T07:58:03,42.805,6.029,-0.015,0.024,-0.018,112.0,110.0,107.0,13.4,1505.2,357.6,-0.7,1.8,2471.525,13.29,0.028,328.0
2023-12-06T08:04:03,42.805,6.029,-0.013,0.034,0.001,111.0,112.0,107.0,13.4,1505.2,3.3,-0.7,1.8,2471.524,13.29,0.036,339.1
2023-12-06T08:07:03,42.805,6.029,0.01,0.008,0.005,112.0,112.0,108.0,13.4,1505.2,350.9,-0.8,1.8,2471.531,13.29,0.012,51.3
2023-12-06T08:10:03,42.805,6.029,-0.001,0.03,-0.026,112.0,110.0,107.0,13.4,1505.2,353.7,-0.8,1.8,2471.532,13.29,0.03,358.1
2023-12-06T08:13:03,42.805,6.029,-0.01,0.014,-0.021,113.0,111.0,108.0,13.3,1505.2,343.2,-0.8,1.8,2471.554,13.29,0.017,324.5
2023-12-06T08:16:03,42.805,6.029,-0.022,0.008,0.002,113.0,111.0,107.0,13.3,1505.2,348.3,-0.7,1.8,2471.556,13.29,0.023,290.0
2023-12-06T08:19:03,42.805,6.029,0.004,0.015,-0.007,113.0,112.0,107.0,13.4,1505.2,340.5,-0.7,1.8,2471.452,13.29,0.015,14.9
2023-12-06T08:22:03,42.805,6.029,-0.009,0.035,-0.045,112.0,111.0,108.0,13.4,1505.2,352.8,-0.7,1.8,2471.487,13.29,0.036,345.6
2023-12-06T08:25:03,42.805,6.029,-0.003,0.011,0.001,112.0,112.0,108.0,13.4,1505.2,355.6,-0.7,1.8,2471.51,13.29,0.011,344.7
2023-12-06T08:28:03,42.805,6.029,-0.018,0.019,-0.009,114.0,112.0,108.0,13.3,1505.2,338.9,-0.8,1.8,2471.505,13.29,0.026,316.5
2023-12-06T08:31:03,42.805,6.029,-0.003,0.014,-0.041,113.0,112.0,108.0,13.3,1505.2,358.4,-0.7,1.8,2471.49,13.29,0.014,347.9
2023-12-06T08:34:03,42.805,6.029,-0.009,0.005,0.008,111.0,112.0,108.0,13.4,1505.2,352.7,-0.8,1.8,2471.486,13.29,0.01,299.1
2023-12-06T08:37:03,42.805,6.029,-0.005,0.013,-0.033,113.0,112.0,108.0,13.4,1505.2,359.2,-0.8,1.8,2471.53,13.29,0.013,339.0
2023-12-06T08:40:03,42.805,6.029,0.005,-0.006,-0.015,112.0,112.0,107.0,13.4,1505.2,355.6,-0.8,1.8,2471.51,13.29,0.007,140.2
2023-12-06T08:43:03,42.805,6.029,-0.003,0.028,-0.006,113.0,112.0,106.0,13.4,1505.2,344.6,-0.7,1.8,2471.474,13.29,0.028,353.9
2023-12-06T08:46:03,42.805,6.029,-0.011,0.008,-0.013,114.0,111.0,108.0,13.4,1505.2,345.3,-0.8,1.8,2471.527,13.29,0.013,306.0
2023-12-06T08:49:03,42.805,6.029,-0.017,0.003,0.003,112.0,112.0,107.0,13.3,1505.2,340.0,-0.8,1.8,2471.537,13.29,0.017,280.0
2023-12-06T08:52:03,42.805,6.029,-0.02,0.012,-0.031,113.0,111.0,107.0,13.3,1505.2,0.8,-0.8,1.8,2471.483,13.3,0.023,301.0
2023-12-06T08:55:03,42.805,6.029,0.01,0.019,0.016,111.0,112.0,107.0,13.4,1505.2,3.3,-0.8,1.8,2471.505,13.3,0.021,27.8
2023-12-06T08:58:03,42.805,6.029,-0.01,0.016,-0.001,111.0,111.0,108.0,13.4,1505.2,336.5,-0.8,1.8,2471.511,13.3,0.018,328.0
2023-12-06T09:04:03,42.805,6.029,0.005,-0.003,-0.025,110.0,111.0,108.0,13.4,1505.2,356.0,-0.8,1.8,2471.557,13.29,0.005,121.0
2023-12-06T09:07:03,42.805,6.029,0.0,0.007,0.014,112.0,112.0,108.0,13.4,1505.2,349.7,-0.8,1.8,2471.585,13.29,0.007,0.0
2023-12-06T09:10:03,42.805,6.029,-0.009,0.0,-0.008,112.0,111.0,107.0,13.4,1505.2,357.5,-0.8,1.8,2471.545,13.29,0.009,270.0
2023-12-06T09:13:03,42.805,6.029,-0.003,0.021,-0.003,113.0,111.0,108.0,13.3,1505.2,354.7,-0.8,1.8,2471.527,13.29,0.021,351.9
2023-12-06T09:16:03,42.805,6.029,-0.021,0.01,-0.025,111.0,112.0,108.0,13.4,1505.2,348.3,-0.8,1.8,2471.513,13.29,0.023,295.5
2023-12-06T09:19:03,42.805,6.029,-0.005,0.011,-0.025,113.0,111.0,108.0,13.4,1505.2,345.3,-0.8,1.8,2471.518,13.29,0.012,335.6
2023-12-06T09:22:03,42.805,6.029,-0.007,-0.036,-0.013,111.0,112.0,108.0,13.4,1505.2,351.6,-0.7,1.8,2471.537,13.3,0.036,191.0
2023-12-06T09:25:03,42.805,6.029,-0.008,-0.006,-0.004,114.0,111.0,108.0,13.3,1505.2,343.3,-0.7,1.8,2471.527,13.3,0.01,233.1
2023-12-06T09:28:03,42.805,6.029,-0.009,0.003,-0.034,113.0,111.0,108.0,13.3,1505.2,342.6,-0.8,1.8,2471.512,13.29,0.009,288.4
2023-12-06T09:31:03,42.805,6.029,-0.007,0.009,-0.012,110.0,111.0,108.0,13.4,1505.2,347.2,-0.7,1.9,2471.51,13.29,0.011,322.1
2023-12-06T09:34:03,42.805,6.029,0.0,-0.006,0.008,111.0,112.0,108.0,13.3,1505.2,339.1,-0.8,1.8,2471.547,13.3,0.006,180.0
2023-12-06T09:37:03,42.805,6.029,-0.013,0.023,-0.022,112.0,111.0,109.0,13.4,1505.2,345.7,-0.8,1.8,2471.476,13.3,0.026,330.5
2023-12-06T09:40:03,42.805,6.029,0.001,0.016,-0.019,112.0,112.0,109.0,13.4,1505.2,345.6,-0.8,1.8,2471.53,13.3,0.016,3.6
2023-12-06T09:43:03,42.805,6.029,0.008,-0.004,-0.033,111.0,110.0,109.0,13.3,1505.2,346.1,-0.8,1.8,2471.517,13.3,0.008,116.6
2023-12-06T09:46:03,42.805,6.029,0.005,-0.011,-0.017,111.0,112.0,108.0,13.3,1505.2,350.0,-0.8,1.8,2471.553,13.3,0.012,155.6
2023-12-06T09:49:03,42.805,6.029,0.004,-0.02,-0.014,111.0,111.0,108.0,13.3,1505.2,347.9,-0.7,1.8,2471.505,13.3,0.02,168.7
2023-12-06T09:52:03,42.805,6.029,0.013,0.002,0.001,111.0,112.0,109.0,13.3,1505.2,335.8,-0.8,1.8,2471.52,13.3,0.013,81.3
2023-12-06T09:55:03,42.805,6.029,0.017,0.003,-0.017,113.0,112.0,108.0,13.4,1505.2,3.4,-0.7,1.8,2471.553,13.3,0.017,80.0
2023-12-06T09:58:03,42.805,6.029,0.016,-0.011,-0.009,112.0,112.0,108.0,13.3,1505.2,351.8,-0.8,1.8,2471.509,13.3,0.019,124.5
2023-12-06T10:04:03,42.805,6.029,0.002,0.011,0.006,112.0,111.0,107.0,13.4,1505.2,347.9,-0.8,1.8,2471.576,13.29,0.011,10.3
2023-12-06T10:07:03,42.805,6.029,0.023,0.019,-0.004,110.0,111.0,109.0,13.4,1505.2,346.8,-0.8,1.8,2471.59,13.29,0.029,50.4
2023-12-06T10:10:03,42.805,6.029,-0.021,0.025,-0.013,112.0,111.0,107.0,13.3,1505.2,344.3,-0.7,1.8,2471.597,13.29,0.032,320.0
2023-12-06T10:13:03,42.805,6.029,0.014,-0.014,0.002,112.0,112.0,108.0,13.3,1505.2,341.3,-0.8,1.8,2471.571,13.3,0.019,135.0
2023-12-06T10:16:03,42.805,6.029,0.013,0.024,-0.001,113.0,110.0,106.0,13.4,1505.2,348.9,-0.8,1.8,2471.542,13.3,0.027,28.4
2023-12-06T10:19:03,42.805,6.029,0.014,0.0,-0.014,113.0,112.0,108.0,13.3,1505.2,353.3,-0.8,1.8,2471.547,13.3,0.014,90.0
2023-12-06T10:22:03,42.805,6.029,0.002,0.018,0.002,111.0,112.0,108.0,13.3,1505.2,356.4,-0.7,1.8,2471.573,13.3,0.018,6.3
2023-12-06T10:25:03,42.805,6.029,0.003,0.002,-0.001,113.0,112.0,108.0,13.4,1505.2,1.6,-0.7,1.8,2471.548,13.3,0.003,56.3
2023-12-06T10:28:03,42.805,6.029,0.024,0.01,0.005,113.0,112.0,108.0,13.4,1505.2,352.6,-0.8,1.8,2471.581,13.3,0.026,67.4
2023-12-06T10:31:03,42.805,6.029,0.01,-0.02,-0.002,111.0,113.0,109.0,13.3,1505.2,338.4,-0.8,1.8,2471.562,13.29,0.022,153.4
2023-12-06T10:34:03,42.805,6.029,-0.001,0.012,0.005,112.0,111.0,108.0,13.4,1505.2,0.0,-0.8,1.8,2471.529,13.29,0.012,355.2
2023-12-06T10:37:03,42.805,6.029,0.0,0.014,-0.008,113.0,111.0,108.0,13.4,1505.2,340.5,-0.8,1.8,2471.566,13.29,0.014,0.0
2023-12-06T10:40:03,42.805,6.029,0.007,-0.006,-0.015,111.0,112.0,106.0,13.4,1505.2,357.3,-0.7,1.8,2471.533,13.29,0.009,130.6
2023-12-06T10:43:03,42.805,6.029,-0.005,0.015,-0.021,111.0,111.0,108.0,13.3,1505.2,351.8,-0.7,1.8,2471.556,13.29,0.015,341.6
2023-12-06T10:46:03,42.805,6.029,0.007,0.006,-0.023,112.0,111.0,107.0,13.4,1505.2,352.9,-0.7,1.8,2471.539,13.29,0.009,49.4
2023-12-06T10:49:03,42.805,6.029,0.007,0.0,-0.02,112.0,112.0,108.0,13.3,1505.2,350.2,-0.7,1.8,2471.574,13.29,0.007,90.0
2023-12-06T10:52:03,42.805,6.029,0.006,-0.009,-0.026,112.0,111.0,108.0,13.3,1505.2,357.6,-0.8,1.8,2471.502,13.29,0.01,146.3
2023-12-06T10:55:03,42.805,6.029,0.001,-0.01,0.017,113.0,112.0,109.0,13.3,1505.2,356.4,-0.8,1.8,2471.53,13.29,0.01,174.3
2023-12-06T10:58:03,42.805,6.029,0.013,0.004,0.005,112.0,112.0,108.0,13.4,1505.2,353.8,-0.7,1.8,2471.531,13.29,0.013,72.9
2023-12-06T11:04:03,42.805,6.029,0.019,-0.002,0.004,111.0,113.0,107.0,13.4,1505.2,355.1,-0.8,1.8,2471.597,13.29,0.019,96.0
2023-12-06T11:07:03,42.805,6.029,0.004,0.007,-0.025,113.0,110.0,106.0,13.4,1505.2,355.4,-0.7,1.8,2471.578,13.29,0.008,29.7
2023-12-06T11:10:03,42.805,6.029,0.011,0.006,0.012,111.0,110.0,106.0,13.3,1505.2,355.8,-0.8,1.8,2471.58,13.29,0.012,61.4
2023-12-06T11:13:03,42.805,6.029,-0.006,0.011,-0.02,111.0,110.0,109.0,13.4,1505.2,353.3,-0.8,1.8,2471.607,13.29,0.012,331.4
2023-12-06T11:16:03,42.805,6.029,0.023,-0.016,-0.025,112.0,112.0,107.0,13.3,1505.2,355.3,-0.8,1.8,2471.599,13.29,0.028,124.8
2023-12-06T11:19:03,42.805,6.029,0.016,-0.003,-0.005,112.0,110.0,106.0,13.3,1505.2,356.5,-0.8,1.8,2471.6,13.29,0.016,100.6
2023-12-06T11:22:03,42.805,6.029,0.013,-0.005,0.007,111.0,110.0,107.0,13.4,1505.2,337.1,-0.7,1.8,2471.576,13.29,0.013,111.0
2023-12-06T11:25:03,42.805,6.029,0.0,0.0,-0.019,111.0,110.0,108.0,13.3,1505.2,346.3,-0.8,1.8,2471.589,13.29,0.0,0.0
2023-12-06T11:28:03,42.805,6.029,0.005,-0.009,0.006,111.0,111.0,108.0,13.3,1505.2,347.0,-0.8,1.8,2471.605,13.29,0.01,150.9
2023-12-06T11:31:03,42.805,6.029,0.018,0.011,-0.014,112.0,111.0,107.0,13.4,1505.2,345.9,-0.7,1.8,2471.588,13.29,0.021,58.6
2023-12-06T11:34:03,42.805,6.029,-0.014,-0.025,-0.04,113.0,110.0,108.0,13.4,1505.2,348.6,-0.8,1.8,2471.587,13.29,0.028,209.3
2023-12-06T11:37:03,42.805,6.029,0.01,-0.01,-0.006,112.0,111.0,107.0,13.4,1505.2,347.2,-0.8,1.8,2471.566,13.29,0.014,135.0
2023-12-06T11:40:03,42.805,6.029,0.013,0.011,0.004,112.0,110.0,107.0,13.4,1505.2,358.3,-0.8,1.8,2471.582,13.29,0.017,49.8
2023-12-06T11:43:03,42.805,6.029,0.018,0.003,0.007,111.0,111.0,107.0,13.3,1505.2,354.5,-0.7,1.8,2471.571,13.29,0.018,80.5
2023-12-06T11:46:03,42.805,6.029,0.017,-0.033,-0.023,110.0,110.0,107.0,13.4,1505.2,355.3,-0.7,1.8,2471.566,13.29,0.037,152.7
2023-12-06T11:49:03,42.805,6.029,0.037,-0.016,-0.011,112.0,110.0,108.0,13.4,1505.2,343.9,-0.7,1.8,2471.583,13.29,0.04,113.4
2023-12-06T11:52:03,42.805,6.029,0.025,-0.016,0.015,111.0,111.0,107.0,13.4,1505.2,352.4,-0.8,1.8,2471.616,13.29,0.029,122.6
2023-12-06T11:55:03,42.805,6.029,-0.006,-0.002,0.013,112.0,111.0,106.0,13.4,1505.2,341.0,-0.8,1.8,2471.578,13.29,0.006,251.6
2023-12-06T11:58:03,42.805,6.029,0.009,-0.017,0.009,112.0,110.0,107.0,13.3,1505.2,355.6,-0.8,1.8,2471.612,13.29,0.019,152.1